Back to catalog

THOR ABLESTAR DEB

AliveLEO
NORAD 48821·DEBRIS·🇺🇸 United States

Launched Jun 29, 1961 from Cape Canaveral Space Force Station

Loading…

Next Passes (next 24 hours)

TLE

FreshSource: Space-Track

Epoch: Sep 14, 2026, 08:52 UTC

1 48821U 61015MZ  26257.36965445  .00000226  00000-0  73240-3 0  9999
2 48821  67.9326 281.8960 0508980   6.5380 354.1964 12.77451318565810

Track THOR ABLESTAR DEB in real time with AllMySat

Download on the App Store